Simultaneous Nadir Overpasses (SNOs) Predictions

Prediction of SNOs between FY3D and NOAA-19 Satellite Orbit:

Table of predicted SNOs for the next 14.0 days since TLE Epoch: 7/15/2024
Index Date (FY3D) Time (FY3D) Lat,Lon (FY3D) SZA (FY3D ) Date (NOAA-19) Time (NOAA-19) Lat,Lon (NOAA-19) SZA (NOAA-19 ) Distance(km) Time Diff (sec)
1 07/18/2024 23:21:32 75.87,-170.12 55.01 07/18/2024 23:20:20 75.89,-171.20 55.03 29.16 72
2 07/19/2024 00:12:20 -76.03, -3.36 124.83 07/19/2024 00:11:11 -76.04, -3.36 124.82 1.06 69
3 07/19/2024 01:03:07 76.07, 163.81 55.22 07/19/2024 01:02:14 76.06, 163.93 55.21 3.63 53
4 07/19/2024 01:53:51 -76.05, -28.80 124.80 07/19/2024 01:53:09 -76.04, -28.88 124.81 2.55 42
5 07/19/2024 02:44:36 76.04, 138.53 55.21 07/19/2024 02:44:11 76.05, 138.42 55.22 3.26 25
6 07/19/2024 03:35:21 -76.07, -54.23 124.77 07/19/2024 03:35:05 -76.07, -54.23 124.76 0.94 16
7 07/19/2024 04:26:07 76.06, 113.10 55.24 07/19/2024 04:26:08 76.09, 113.07 55.27 3.52 1
8 07/19/2024 05:16:52 -76.08, -79.67 124.74 07/19/2024 05:17:03 -76.07, -79.74 124.75 2.55 11
9 07/19/2024 06:07:38 76.08, 87.67 55.27 07/19/2024 06:08:06 76.08, 87.56 55.27 3.09 28
10 07/19/2024 06:58:23 -76.10,-105.10 124.71 07/19/2024 06:59:00 -76.11,-105.09 124.70 0.83 37
11 07/19/2024 07:49:09 76.09, 62.23 55.30 07/19/2024 07:50:03 76.12, 62.21 55.32 3.37 54
12 07/19/2024 08:39:54 -76.12,-130.53 124.68 07/19/2024 08:40:58 -76.10,-130.60 124.70 2.55 64
13 07/19/2024 09:30:46 76.38, 35.81
